TimeCDT,TemperatureF,Dew PointF,Humidity,Sea Level PressureIn,VisibilityMPH,Wind Direction,Wind SpeedMPH,Gust SpeedMPH,PrecipitationIn,Events,Conditions,WindDirDegrees,DateUTC
12:53 AM,48.0,45.0,89,29.99,10.0,West,4.6,-,N/A,,Clear,270,2011-10-19 05:53:00
1:53 AM,48.9,45.0,86,29.98,10.0,West,4.6,-,N/A,,Clear,260,2011-10-19 06:53:00
2:53 AM,46.9,44.1,90,29.97,10.0,West,4.6,-,N/A,,Clear,260,2011-10-19 07:53:00
3:53 AM,48.9,43.0,80,29.95,10.0,WNW,5.8,-,N/A,,Clear,290,2011-10-19 08:53:00
4:53 AM,50.0,41.0,71,29.96,10.0,WNW,6.9,-,N/A,,Clear,300,2011-10-19 09:53:00
5:53 AM,51.8,39.2,62,29.95,10.0,NW,10.4,18.4,N/A,,Clear,320,2011-10-19 10:53:00
6:53 AM,51.1,37.9,61,29.99,10.0,NW,10.4,-,N/A,,Clear,320,2011-10-19 11:53:00
7:53 AM,51.1,37.0,59,30.00,10.0,NW,10.4,16.1,N/A,,Clear,320,2011-10-19 12:53:00
8:53 AM,54.0,37.0,53,30.03,10.0,NW,15.0,23.0,N/A,,Clear,320,2011-10-19 13:53:00
9:53 AM,57.9,37.0,46,30.04,10.0,NW,16.1,24.2,N/A,,Clear,320,2011-10-19 14:53:00
10:53 AM,60.8,32.0,34,30.01,10.0,NNW,16.1,26.5,N/A,,Clear,340,2011-10-19 15:53:00
11:53 AM,62.6,30.2,30,30.00,10.0,NNW,16.1,25.3,N/A,,Clear,330,2011-10-19 16:53:00
12:53 PM,66.0,28.9,25,30.00,10.0,NNW,18.4,28.8,N/A,,Clear,340,2011-10-19 17:53:00
1:53 PM,70.0,30.9,24,29.97,10.0,NNW,12.7,26.5,N/A,,Clear,330,2011-10-19 18:53:00
2:53 PM,70.0,30.0,23,29.95,10.0,NNW,15.0,29.9,N/A,,Clear,330,2011-10-19 19:53:00
3:53 PM,71.1,30.0,22,29.96,10.0,NW,19.6,32.2,N/A,,Clear,320,2011-10-19 20:53:00
4:53 PM,70.0,30.0,23,29.96,10.0,NW,20.7,33.4,N/A,,Clear,320,2011-10-19 21:53:00
5:53 PM,68.0,30.9,25,29.97,10.0,NNW,21.9,31.1,N/A,,Clear,330,2011-10-19 22:53:00
6:53 PM,64.9,32.0,29,30.01,10.0,NNW,11.5,-,N/A,,Clear,330,2011-10-19 23:53:00
7:53 PM,62.1,33.1,34,30.03,10.0,NW,6.9,-,N/A,,Clear,320,2011-10-20 00:53:00
10:53 PM,52.0,37.0,57,30.09,10.0,WNW,4.6,-,N/A,,Clear,290,2011-10-20 03:53:00
11:53 PM,46.9,37.9,71,30.09,10.0,WNW,3.5,-,N/A,,Clear,290,2011-10-20 04:53:00